Time,TemperatureF,DewpointF,PressureIn,WindDirection,WindDirectionDegrees,WindSpeedMPH,WindSpeedGustMPH,Humidity,HourlyPrecipIn,Conditions,Clouds,dailyrainin,SolarRadiationWatts/m^2,SoftwareType,DateUTC
2013-01-30 00:02:00,6.0,2.0,-100.00,SW,233,0.0,5.0,84,0.00,,,0.15,0.000000,,2013-01-30 07:02:00,
2013-01-30 00:11:00,6.0,2.0,-100.00,SW,233,0.0,5.0,84,0.00,,,0.15,0.000000,,2013-01-30 07:11:00,
2013-01-30 00:32:00,5.0,1.0,-100.00,SSW,198,3.0,4.0,83,0.00,,,0.15,0.000000,,2013-01-30 07:32:00,
2013-01-30 00:42:00,5.0,1.0,-100.00,SSW,198,3.0,4.0,83,0.00,,,0.15,0.000000,,2013-01-30 07:42:00,
2013-01-30 00:52:00,5.0,1.0,-100.00,SSW,198,3.0,4.0,83,0.00,,,0.15,0.000000,,2013-01-30 07:52:00,
2013-01-30 01:01:00,5.0,1.0,-100.00,SSW,198,3.0,4.0,83,0.00,,,0.15,0.000000,,2013-01-30 08:01:00,
2013-01-30 01:11:00,5.0,1.0,-100.00,SSW,198,3.0,4.0,83,0.00,,,0.15,0.000000,,2013-01-30 08:11:00,
2013-01-30 01:32:00,5.0,1.0,-100.00,SE,130,3.0,5.0,83,0.00,,,0.15,0.000000,,2013-01-30 08:32:00,
2013-01-30 01:42:00,5.0,1.0,-100.00,SE,130,3.0,5.0,83,0.00,,,0.15,0.000000,,2013-01-30 08:42:00,
2013-01-30 01:52:00,5.0,1.0,-100.00,SE,130,3.0,5.0,83,0.00,,,0.15,0.000000,,2013-01-30 08:52:00,
2013-01-30 02:01:00,5.0,1.0,-100.00,SE,130,3.0,5.0,83,0.00,,,0.15,0.000000,,2013-01-30 09:01:00,
2013-01-30 02:11:00,5.0,1.0,-100.00,SE,130,3.0,5.0,83,0.00,,,0.15,0.000000,,2013-01-30 09:11:00,
2013-01-30 02:32:00,5.0,1.0,-100.00,South,181,2.0,7.0,82,0.00,,,0.15,0.000000,,2013-01-30 09:32:00,
2013-01-30 02:42:00,5.0,1.0,-100.00,South,181,2.0,7.0,82,0.00,,,0.15,0.000000,,2013-01-30 09:42:00,
2013-01-30 02:52:00,5.0,1.0,-100.00,South,181,2.0,7.0,82,0.00,,,0.15,0.000000,,2013-01-30 09:52:00,
2013-01-30 03:01:00,5.0,1.0,-100.00,South,181,2.0,7.0,82,0.00,,,0.15,0.000000,,2013-01-30 10:01:00,
2013-01-30 03:11:00,5.0,1.0,-100.00,South,181,2.0,7.0,82,0.00,,,0.15,0.000000,,2013-01-30 10:11:00,
2013-01-30 03:32:00,6.0,2.0,-100.00,SSW,213,5.0,11.0,83,0.00,,,0.15,0.000000,,2013-01-30 10:32:00,
2013-01-30 03:42:00,6.0,2.0,-100.00,SSW,213,5.0,11.0,83,0.00,,,0.15,0.000000,,2013-01-30 10:42:00,
2013-01-30 03:52:00,6.0,2.0,-100.00,SSW,213,5.0,11.0,83,0.00,,,0.15,0.000000,,2013-01-30 10:52:00,
2013-01-30 04:02:00,6.0,2.0,-100.00,SSW,213,5.0,11.0,83,0.00,,,0.15,0.000000,,2013-01-30 11:02:00,
2013-01-30 04:11:00,6.0,2.0,-100.00,SSW,213,5.0,11.0,83,0.00,,,0.15,0.000000,,2013-01-30 11:11:00,
2013-01-30 04:42:00,7.0,3.0,-100.00,South,188,5.0,11.0,83,0.00,,,0.15,0.000000,,2013-01-30 11:42:00,
2013-01-30 04:52:00,7.0,3.0,-100.00,South,188,5.0,11.0,83,0.00,,,0.15,0.000000,,2013-01-30 11:52:00,
2013-01-30 05:02:00,7.0,3.0,-100.00,South,188,5.0,11.0,83,0.00,,,0.15,0.000000,,2013-01-30 12:02:00,
2013-01-30 05:12:00,7.0,3.0,-100.00,South,188,5.0,11.0,83,0.00,,,0.15,0.000000,,2013-01-30 12:12:00,
2013-01-30 05:33:00,10.0,6.0,-100.00,SW,222,7.0,15.0,82,0.00,,,0.15,0.000000,,2013-01-30 12:33:00,
2013-01-30 05:43:00,10.0,6.0,-100.00,SW,222,7.0,15.0,82,0.00,,,0.15,0.000000,,2013-01-30 12:43:00,
2013-01-30 06:03:00,10.0,6.0,-100.00,SW,222,7.0,15.0,82,0.00,,,0.15,0.000000,,2013-01-30 13:03:00,
2013-01-30 06:12:00,10.0,6.0,-100.00,SW,222,7.0,15.0,82,0.00,,,0.15,0.000000,,2013-01-30 13:12:00,
2013-01-30 06:43:00,11.0,7.0,-100.00,SW,226,9.0,17.0,82,0.00,,,0.15,0.000000,,2013-01-30 13:43:00,
2013-01-30 06:53:00,11.0,7.0,-100.00,SW,226,9.0,17.0,82,0.00,,,0.15,0.000000,,2013-01-30 13:53:00,
2013-01-30 07:02:00,11.0,7.0,-100.00,SW,226,9.0,17.0,82,0.00,,,0.15,0.000000,,2013-01-30 14:02:00,
2013-01-30 07:12:00,11.0,7.0,-100.00,SW,226,9.0,17.0,82,0.00,,,0.15,0.000000,,2013-01-30 14:12:00,
2013-01-30 07:43:00,11.0,6.0,-100.00,SW,231,8.0,20.0,79,0.00,,,0.15,0.000000,,2013-01-30 14:43:00,
2013-01-30 07:53:00,11.0,6.0,-100.00,SW,231,8.0,20.0,79,0.00,,,0.15,0.000000,,2013-01-30 14:53:00,
2013-01-30 08:03:00,11.0,6.0,-100.00,SW,231,8.0,20.0,79,0.00,,,0.15,0.000000,,2013-01-30 15:03:00,
2013-01-30 08:12:00,11.0,6.0,-100.00,SW,231,8.0,20.0,79,0.00,,,0.15,0.000000,,2013-01-30 15:12:00,
2013-01-30 08:33:00,13.0,7.0,-100.00,WSW,240,7.0,15.0,77,0.00,,,0.15,26.000000,,2013-01-30 15:33:00,
2013-01-30 08:43:00,13.0,7.0,-100.00,WSW,240,7.0,15.0,77,0.00,,,0.15,26.000000,,2013-01-30 15:43:00,
2013-01-30 08:53:00,13.0,7.0,-100.00,WSW,240,7.0,15.0,77,0.00,,,0.15,26.000000,,2013-01-30 15:53:00,
2013-01-30 09:03:00,13.0,7.0,-100.00,WSW,240,7.0,15.0,77,0.00,,,0.15,26.000000,,2013-01-30 16:03:00,
2013-01-30 09:12:00,13.0,7.0,-100.00,WSW,240,7.0,15.0,77,0.00,,,0.15,26.000000,,2013-01-30 16:12:00,
2013-01-30 09:33:00,17.0,8.0,-100.00,SW,219,7.0,15.0,68,0.00,,,0.15,199.000000,,2013-01-30 16:33:00,
2013-01-30 09:42:00,17.0,8.0,-100.00,SW,219,7.0,15.0,68,0.00,,,0.15,199.000000,,2013-01-30 16:42:00,
2013-01-30 09:52:00,17.0,8.0,-100.00,SW,219,7.0,15.0,68,0.00,,,0.15,199.000000,,2013-01-30 16:52:00,
2013-01-30 10:02:00,17.0,8.0,-100.00,SW,219,7.0,15.0,68,0.00,,,0.15,199.000000,,2013-01-30 17:02:00,
2013-01-30 10:12:00,17.0,8.0,-100.00,SW,219,7.0,15.0,68,0.00,,,0.15,199.000000,,2013-01-30 17:12:00,
2013-01-30 10:33:00,20.0,11.0,-100.00,SSW,201,5.0,15.0,66,0.00,,,-99.99,227.000000,,2013-01-30 17:33:00,
2013-01-30 10:43:00,20.0,11.0,-100.00,SSW,201,5.0,15.0,66,0.00,,,-99.99,227.000000,,2013-01-30 17:43:00,
2013-01-30 10:53:00,20.0,11.0,-100.00,SSW,201,5.0,15.0,66,0.00,,,-99.99,227.000000,,2013-01-30 17:53:00,
2013-01-30 11:02:00,20.0,11.0,-100.00,SSW,201,5.0,15.0,66,0.00,,,-99.99,227.000000,,2013-01-30 18:02:00,
2013-01-30 11:12:00,20.0,11.0,-100.00,SSW,201,5.0,15.0,66,0.00,,,-99.99,227.000000,,2013-01-30 18:12:00,
2013-01-30 11:33:00,22.0,11.0,-100.00,SW,215,8.0,17.0,61,0.00,,,0.10,385.000000,,2013-01-30 18:33:00,
2013-01-30 11:43:00,22.0,11.0,-100.00,SW,215,8.0,17.0,61,0.00,,,0.10,385.000000,,2013-01-30 18:43:00,
2013-01-30 11:53:00,22.0,11.0,-100.00,SW,215,8.0,17.0,61,0.00,,,0.10,385.000000,,2013-01-30 18:53:00,
2013-01-30 12:03:00,22.0,11.0,-100.00,SW,215,8.0,17.0,61,0.00,,,0.10,385.000000,,2013-01-30 19:03:00,
2013-01-30 12:12:00,22.0,11.0,-100.00,SW,215,8.0,17.0,61,0.00,,,0.10,385.000000,,2013-01-30 19:12:00,
2013-01-30 12:43:00,24.0,13.0,-100.00,SSW,212,8.0,16.0,61,0.00,,,0.05,452.000000,,2013-01-30 19:43:00,
2013-01-30 12:53:00,24.0,13.0,-100.00,SSW,212,8.0,16.0,61,0.00,,,0.05,452.000000,,2013-01-30 19:53:00,
2013-01-30 13:03:00,24.0,13.0,-100.00,SSW,212,8.0,16.0,61,0.00,,,0.05,452.000000,,2013-01-30 20:03:00,
2013-01-30 13:12:00,24.0,13.0,-100.00,SSW,212,8.0,16.0,61,0.00,,,0.05,452.000000,,2013-01-30 20:12:00,
2013-01-30 13:33:00,26.0,14.0,-100.00,SW,221,6.0,14.0,59,0.00,,,0.00,424.000000,,2013-01-30 20:33:00,
2013-01-30 13:42:00,26.0,14.0,-100.00,SW,221,6.0,14.0,59,0.00,,,0.00,424.000000,,2013-01-30 20:42:00,
2013-01-30 13:53:00,26.0,14.0,-100.00,SW,221,6.0,14.0,59,0.00,,,0.00,424.000000,,2013-01-30 20:53:00,
2013-01-30 14:03:00,26.0,14.0,-100.00,SW,221,6.0,14.0,59,0.00,,,0.00,424.000000,,2013-01-30 21:03:00,
2013-01-30 14:12:00,26.0,14.0,-100.00,SW,221,6.0,14.0,59,0.00,,,0.00,424.000000,,2013-01-30 21:12:00,
2013-01-30 14:43:00,22.0,12.0,-100.00,SW,220,9.0,18.0,64,0.00,,,0.00,348.000000,,2013-01-30 21:43:00,
2013-01-30 14:53:00,22.0,12.0,-100.00,SW,220,9.0,18.0,64,0.00,,,0.00,348.000000,,2013-01-30 21:53:00,
2013-01-30 15:03:00,22.0,12.0,-100.00,SW,220,9.0,18.0,64,0.00,,,0.00,348.000000,,2013-01-30 22:03:00,
2013-01-30 15:12:00,22.0,12.0,-100.00,SW,220,9.0,18.0,64,0.00,,,0.00,348.000000,,2013-01-30 22:12:00,
2013-01-30 15:43:00,21.0,15.0,-100.00,SW,230,8.0,23.0,76,0.00,,,0.00,205.000000,,2013-01-30 22:43:00,
2013-01-30 15:53:00,21.0,15.0,-100.00,SW,230,8.0,23.0,76,0.00,,,0.00,205.000000,,2013-01-30 22:53:00,
2013-01-30 16:02:00,21.0,15.0,-100.00,SW,230,8.0,23.0,76,0.00,,,0.00,205.000000,,2013-01-30 23:02:00,
2013-01-30 16:12:00,21.0,15.0,-100.00,SW,230,8.0,23.0,76,0.00,,,0.00,205.000000,,2013-01-30 23:12:00,
2013-01-30 16:33:00,20.0,14.0,-100.00,SW,228,8.0,18.0,77,0.00,,,0.00,173.000000,,2013-01-30 23:33:00,
2013-01-30 16:42:00,20.0,14.0,-100.00,SW,228,8.0,18.0,77,0.00,,,0.00,173.000000,,2013-01-30 23:42:00,
2013-01-30 16:52:00,20.0,14.0,-100.00,SW,228,8.0,18.0,77,0.00,,,0.00,173.000000,,2013-01-30 23:52:00,
2013-01-30 17:02:00,20.0,14.0,-100.00,SW,228,8.0,18.0,77,0.00,,,0.00,173.000000,,2013-01-31 00:02:00,
2013-01-30 17:11:00,20.0,14.0,-100.00,SW,228,8.0,18.0,77,0.00,,,0.00,173.000000,,2013-01-31 00:11:00,
2013-01-30 17:32:00,19.0,14.0,-100.00,SW,231,10.0,21.0,81,0.00,,,0.00,57.000000,,2013-01-31 00:32:00,
2013-01-30 17:42:00,19.0,14.0,-100.00,SW,231,10.0,21.0,81,0.00,,,0.00,57.000000,,2013-01-31 00:42:00,
2013-01-30 17:53:00,19.0,14.0,-100.00,SW,231,10.0,21.0,81,0.00,,,0.00,57.000000,,2013-01-31 00:53:00,
2013-01-30 18:02:00,19.0,14.0,-100.00,SW,231,10.0,21.0,81,0.00,,,0.00,57.000000,,2013-01-31 01:02:00,
2013-01-30 18:12:00,19.0,14.0,-100.00,SW,231,10.0,21.0,81,0.00,,,0.00,57.000000,,2013-01-31 01:12:00,
2013-01-30 20:03:00,20.0,15.0,-100.00,SW,228,9.0,18.0,80,-99.99,,,0.00,0.000000,,2013-01-31 03:03:00,
2013-01-30 20:11:00,20.0,15.0,-100.00,SW,228,9.0,18.0,80,-99.99,,,0.00,0.000000,,2013-01-31 03:11:00,
2013-01-30 20:32:00,20.0,16.0,-100.00,South,187,6.0,18.0,84,0.00,,,0.00,0.000000,,2013-01-31 03:32:00,
2013-01-30 20:42:00,20.0,16.0,-100.00,South,187,6.0,18.0,84,0.00,,,0.00,0.000000,,2013-01-31 03:42:00,
2013-01-30 20:52:00,20.0,16.0,-100.00,South,187,6.0,18.0,84,0.00,,,0.00,0.000000,,2013-01-31 03:52:00,
2013-01-30 21:02:00,20.0,16.0,-100.00,South,187,6.0,18.0,84,0.00,,,0.00,0.000000,,2013-01-31 04:02:00,
2013-01-30 21:11:00,20.0,16.0,-100.00,South,187,6.0,18.0,84,0.00,,,0.00,0.000000,,2013-01-31 04:11:00,
2013-01-30 21:32:00,21.0,15.0,-100.00,SSE,164,6.0,14.0,78,0.00,,,0.00,0.000000,,2013-01-31 04:32:00,
2013-01-30 21:42:00,21.0,15.0,-100.00,SSE,164,6.0,14.0,78,0.00,,,0.00,0.000000,,2013-01-31 04:42:00,
2013-01-30 21:52:00,21.0,15.0,-100.00,SSE,164,6.0,14.0,78,0.00,,,0.00,0.000000,,2013-01-31 04:52:00,
2013-01-30 22:03:00,21.0,15.0,-100.00,SSE,164,6.0,14.0,78,0.00,,,0.00,0.000000,,2013-01-31 05:03:00,
2013-01-30 22:11:00,21.0,15.0,-100.00,SSE,164,6.0,14.0,78,0.00,,,0.00,0.000000,,2013-01-31 05:11:00,
2013-01-30 22:42:00,21.0,16.0,-100.00,South,170,5.0,13.0,79,0.00,,,0.00,0.000000,,2013-01-31 05:42:00,
2013-01-30 22:52:00,21.0,16.0,-100.00,South,170,5.0,13.0,79,0.00,,,0.00,0.000000,,2013-01-31 05:52:00,
2013-01-30 23:01:00,21.0,16.0,-100.00,South,170,5.0,13.0,79,0.00,,,0.00,0.000000,,2013-01-31 06:01:00,
2013-01-30 23:10:00,21.0,16.0,-100.00,South,170,5.0,13.0,79,0.00,,,0.00,0.000000,,2013-01-31 06:10:00,